Wind_Speed
22 22 23 23 23 23 24 23 23 25 25 26 26 27 29 29 30 30 29 29 30 31 31 31 31 30 30 30 29 29 29 30 30 29 29 29 30 30 30 29 30 29 29
21 21 21 22 23 23 24 24 24 25 26 27 27 28 28 29 30 30 30 30 31 32 32 32 32 32 31 30 31 30 31 31 31 32 31 31 33 33 32 32 32 31 31
20 20 21 22 23 23 24 25 25 25 26 27 28 28 29 29 30 30 31 32 32 32 32 32 32 33 32 32 32 31 32 33 33 34 34 33 33 33 32 32 33 33 33
19 20 20 21 22 23 24 25 25 26 26 27 28 28 29 29 30 31 31 32 32 33 33 32 32 32 33 32 32 32 31 33 34 34 34 33 32 32 32 33 34 34 34
18 19 19 20 21 22 23 24 25 26 26 27 28 28 29 30 30 30 31 32 32 33 33 33 32 32 33 32 33 33 32 33 32 32 33 33 33 32 33 33 34 35 35
17 18 19 20 20 21 22 24 25 26 27 28 28 29 29 30 30 31 31 32 32 33 33 33 33 34 34 34 34 34 33 33 33 33 33 33 34 33 33 34 34 36 36
18 19 20 21 22 22 23 24 25 26 27 28 29 29 30 30 30 31 31 32 32 32 32 32 32 32 33 34 35 34 33 33 33 33 34 34 35 36 35 35 36 36 37
19 20 21 22 23 24 25 26 26 27 28 28 29 30 30 30 30 30 30 31 31 31 31 31 31 32 33 33 34 34 34 34 35 35 35 35 36 37 37 37 37 37 38
20 21 22 23 24 25 26 26 27 28 27 27 27 28 28 29 29 29 29 30 30 30 30 30 31 32 32 32 33 33 32 33 34 35 35 36 36 37 38 39 39 39 38
21 22 23 25 26 27 27 27 27 27 27 27 27 27 27 27 28 29 29 29 29 30 30 30 30 30 31 31 32 32 32 32 33 34 35 35 35 35 37 38 38 38 38
22 24 25 26 26 27 27 27 27 26 27 27 27 27 27 28 28 28 29 29 29 29 29 29 29 29 30 30 30 31 31 31 32 32 32 34 35 35 36 36 37 37 37
24 25 26 27 27 27 27 27 27 27 27 27 27 28 28 28 28 28 29 28 28 29 29 29 28 28 28 29 29 30 30 31 31 31 31 32 33 35 35 36 36 37 37
25 26 27 27 27 27 28 27 27 28 28 28 27 28 28 28 28 28 28 28 27 27 27 28 28 27 27 28 28 29 29 29 29 29 29 30 32 33 33 34 35 36 36
25 26 27 27 27 27 27 27 27 27 26 26 27 27 28 27 27 28 28 27 26 26 25 25 26 26 26 26 26 26 26 26 27 27 27 27 28 29 31 32 32 32 32
26 27 27 27 27 27 27 26 26 26 26 26 26 27 27 27 27 26 26 25 25 24 24 24 24 24 23 24 24 24 23 24 24 25 25 25 26 27 27 28 28 29 29
27 27 27 26 26 26 26 26 26 26 25 25 25 26 26 25 24 24 23 23 22 22 21 21 21 21 21 21 21 21 21 21 22 22 23 23 23 23 23 25 25 26 27
26 26 25 25 25 25 24 24 24 24 23 23 23 23 22 22 22 21 21 21 20 20 19 19 19 19 19 20 20 20 20 20 20 20 21 21 21 21 21 21 21 22 23
25 24 24 23 23 23 22 22 22 22 22 21 21 20 20 19 19 18 18 18 17 17 16 17 17 17 18 18 18 18 18 18 18 18 19 19 19 19 18 18 18 19 19
23 22 21 21 21 21 21 20 20 19 19 18 18 18 17 16 15 14 14 14 14 14 14 14 15 15 15 16 15 15 15 15 16 16 16 16 16 15 15 15 15 16 17
20 20 19 19 19 19 18 17 16 16 16 15 14 13 12 11 11 11 11 11 11 11 11 11 11 11 12 12 12 12 12 12 13 12 12 12 12 12 12 12 13 13 13
18 18 17 17 16 16 14 14 13 13 12 12 11 10 9 8 8 8 8 9 9 8 8 9 10 9 9 9 9 9 9 9 8 8 8 8 8 8 9 9 9 10 10
16 15 14 13 13 12 11 11 10 10 9 8 7 7 6 6 6 6 6 6 6 5 6 6 6 6 6 6 6 6 6 6 5 5 5 6 6 6 6 7 7 7 8
14 13 12 10 10 10 9 9 8 8 7 6 6 6 5 4 4 3 4 4 3 3 3 3 3 3 3 3 3 3 2 2 2 2 2 2 3 4 4 4 5 6 6
12 10 9 7 7 7 7 7 7 6 7 6 5 5 4 4 3 3 2 1 0 1 0 0 0 0 0 1 1 1 2 2 2 1 1 2 2 3 3 4 5 5 4
10 9 8 7 7 7 7 7 7 7 7 6 6 6 6 5 5 5 5 5 4 4 4 4 4 4 4 4 5 4 4 4 4 4 4 4 4 4 4 4 4 3 3
9 8 8 8 7 7 7 7 8 8 8 8 8 8 8 8 8 9 9 9 8 8 8 7 7 7 7 7 7 7 7 7 6 6 6 6 5 5 5 4 4 4 4
Wind_Direction
268 270 272 274 274 273 273 272 271 270 270 270 269 268 267 267 266 266 268 269 267 268 267 267 267 267 264 263 265 264 263 261 260 259 260 260 259 258 260 257 255 257 257
266 268 270 272 272 272 271 270 271 271 269 269 270 269 269 269 269 267 267 269 268 269 269 266 266 265 264 263 264 264 262 260 258 259 260 261 261 261 260 257 255 256 257
268 271 272 273 274 272 271 271 271 271 270 270 270 270 270 269 269 269 270 270 269 270 270 267 265 263 262 263 261 262 261 260 258 257 258 259 259 260 258 257 256 257 258
271 272 274 274 275 274 273 272 272 273 273 273 273 274 273 272 272 272 272 272 270 270 269 267 264 263 262 261 260 261 260 260 259 259 257 257 258 259 257 256 257 258 258
272 273 276 277 279 277 275 274 274 276 277 277 276 274 274 273 274 273 272 272 271 269 268 266 265 264 261 259 258 258 258 258 257 256 256 257 256 258 259 258 257 259 260
275 276 279 282 283 281 281 280 279 279 280 280 279 276 274 273 274 273 273 272 271 270 268 265 264 262 260 258 257 257 258 257 255 254 255 256 256 258 259 259 258 259 261
277 281 283 285 284 284 284 283 284 283 282 282 281 278 275 274 275 275 273 272 270 269 269 266 264 261 261 260 258 257 258 257 255 254 255 256 257 257 257 260 260 260 260
283 285 286 287 287 286 286 286 285 285 284 282 281 278 277 276 276 276 274 272 271 269 269 268 264 263 262 261 260 259 259 259 258 258 258 258 256 256 257 259 259 260 261
287 287 287 288 288 288 286 286 287 286 284 284 283 281 279 277 276 276 275 273 273 271 270 269 268 266 264 263 261 260 260 260 260 259 259 259 258 257 257 258 259 260 261
290 290 291 291 291 291 289 291 288 285 284 284 283 282 280 279 278 277 276 274 274 273 272 271 270 268 267 266 263 261 261 260 260 261 261 259 259 259 261 261 261 260 260
291 292 293 293 293 292 290 291 290 288 287 285 284 283 282 281 280 280 278 276 275 274 273 271 270 268 267 265 263 262 261 261 261 262 262 259 258 260 261 261 262 262 261
293 295 295 295 295 293 291 290 290 289 288 286 285 284 283 283 282 281 280 278 276 274 273 270 269 267 266 264 262 263 263 262 262 262 261 260 259 260 261 262 262 262 262
296 297 297 295 295 294 293 292 291 290 288 286 286 285 284 284 283 281 282 280 277 275 274 271 270 267 265 264 264 264 264 262 264 263 261 260 260 261 261 262 262 262 263
297 297 298 297 296 295 293 293 292 291 288 287 286 286 286 285 283 282 281 280 278 276 274 272 270 266 264 264 265 265 266 264 263 262 262 261 260 261 264 263 263 263 264
297 298 298 298 297 296 295 294 294 294 292 290 288 288 287 286 284 283 281 279 278 276 274 272 269 265 263 263 263 263 265 265 264 263 263 265 265 265 266 265 265 264 264
299 300 301 300 297 296 295 295 295 294 293 292 290 290 289 287 285 283 281 279 278 275 274 271 269 266 265 265 265 265 267 267 266 265 267 268 269 268 268 268 267 266 267
301 301 301 299 297 296 295 295 295 295 294 293 293 292 289 288 285 281 279 278 277 275 273 271 269 268 267 267 267 266 265 265 266 266 267 268 269 270 270 270 270 269 271
302 301 301 299 298 298 299 298 296 295 295 295 294 291 290 288 284 279 279 278 278 274 271 271 270 268 268 268 269 267 265 264 265 267 267 267 269 271 272 271 272 273 275
303 302 302 302 301 301 301 299 298 297 298 296 294 293 291 288 284 281 278 277 276 275 274 272 272 269 267 267 268 267 266 265 266 266 265 266 269 269 272 274 274 275 276
305 306 306 304 303 303 303 301 300 299 300 301 301 299 296 292 286 279 276 278 277 273 272 271 273 270 267 265 263 262 264 266 265 262 263 263 267 270 274 278 281 281 282
310 309 309 308 308 308 309 308 306 304 304 306 307 305 304 302 296 289 280 279 278 272 270 273 274 272 270 267 264 260 261 264 264 263 263 263 269 272 275 281 285 289 290
318 318 316 315 316 318 321 321 317 315 314 316 319 320 318 311 300 295 286 284 279 277 276 277 276 274 268 262 261 260 260 254 253 258 259 262 267 272 275 279 287 297 297
328 328 324 322 323 325 327 330 330 333 337 340 338 335 333 330 321 307 294 290 285 280 278 276 278 258 259 254 249 250 235 218 217 250 270 277 281 289 294 295 301 306 305
335 339 341 340 340 343 347 353 354 1 4 2 4 7 12 11 13 11 11 25 61 34 360 306 291 309 181 187 185 148 117 109 108 80 47 23 11 351 342 333 327 321 319
352 359 5 7 10 14 18 20 19 19 25 34 39 43 46 46 51 63 71 80 85 90 87 89 91 86 85 85 89 92 93 94 90 79 61 46 31 20 14 5 -0 1 358
2 12 18 23 28 34 36 35 35 40 49 55 58 61 68 69 70 73 78 79 80 81 82 86 86 85 84 85 88 92 91 89 84 76 65 54 48 44 40 34 29 27 21
Height
5851 5851 5851 5850 5849 5849 5848 5848 5847 5846 5846 5845 5844 5844 5843 5842 5842 5841 5841 5841 5841 5840 5840 5840 5840 5840 5840 5841 5842 5842 5843 5843 5844 5845 5845 5845 5846 5846 5847 5847 5848 5848 5849
5846 5845 5845 5844 5844 5843 5842 5842 5841 5840 5839 5839 5838 5837 5836 5835 5834 5834 5834 5834 5833 5833 5832 5832 5832 5832 5833 5833 5834 5835 5835 5836 5837 5838 5838 5838 5839 5839 5840 5840 5841 5841 5842
5841 5840 5839 5839 5838 5837 5836 5835 5835 5834 5833 5832 5831 5830 5829 5829 5828 5828 5827 5826 5825 5825 5824 5823 5823 5824 5825 5826 5826 5827 5828 5828 5829 5829 5831 5831 5832 5832 5832 5833 5834 5834 5835
5835 5835 5834 5833 5832 5831 5830 5829 5828 5827 5826 5825 5824 5823 5822 5821 5821 5820 5819 5818 5817 5816 5816 5815 5815 5816 5816 5817 5818 5819 5819 5820 5821 5821 5822 5823 5824 5824 5825 5826 5826 5826 5827
5830 5829 5829 5828 5826 5825 5824 5822 5821 5821 5819 5818 5817 5816 5815 5814 5813 5811 5810 5809 5809 5808 5808 5807 5807 5808 5807 5807 5809 5810 5811 5811 5812 5813 5814 5815 5816 5816 5818 5818 5819 5819 5819
5825 5824 5824 5822 5821 5819 5818 5816 5815 5814 5813 5811 5810 5808 5807 5806 5805 5803 5802 5801 5800 5800 5800 5799 5799 5799 5799 5800 5801 5802 5802 5803 5804 5805 5806 5807 5808 5808 5809 5810 5810 5811 5811
5821 5819 5818 5817 5815 5813 5812 5810 5808 5807 5806 5804 5802 5801 5799 5798 5797 5795 5794 5793 5792 5792 5791 5791 5791 5791 5791 5791 5792 5793 5794 5794 5795 5796 5797 5799 5800 5800 5800 5801 5801 5802 5803
5816 5814 5813 5811 5809 5807 5806 5804 5802 5800 5798 5796 5794 5793 5791 5790 5789 5787 5786 5785 5784 5783 5783 5783 5783 5783 5783 5783 5783 5784 5785 5786 5787 5787 5788 5790 5791 5791 5792 5792 5793 5794 5794
5811 5809 5807 5805 5803 5801 5799 5797 5795 5792 5790 5788 5787 5785 5783 5782 5781 5779 5778 5777 5776 5775 5775 5774 5774 5774 5774 5775 5775 5775 5776 5776 5777 5778 5780 5781 5782 5782 5783 5783 5784 5785 5785
5805 5803 5801 5799 5797 5794 5791 5789 5787 5785 5783 5781 5779 5777 5776 5774 5773 5772 5770 5769 5768 5768 5767 5766 5766 5766 5766 5766 5767 5767 5767 5768 5769 5770 5771 5771 5772 5773 5774 5774 5775 5776 5776
5800 5797 5795 5793 5790 5787 5784 5782 5779 5777 5775 5773 5772 5770 5768 5767 5765 5764 5762 5761 5761 5760 5759 5758 5758 5758 5758 5758 5759 5759 5760 5760 5760 5761 5762 5762 5764 5764 5765 5766 5766 5767 5767
5793 5791 5788 5786 5783 5780 5777 5775 5772 5770 5768 5766 5764 5762 5760 5759 5757 5756 5754 5753 5752 5752 5751 5750 5750 5750 5750 5750 5751 5751 5751 5752 5752 5753 5753 5754 5755 5755 5756 5757 5758 5758 5758
5787 5784 5781 5779 5776 5773 5770 5767 5765 5762 5760 5758 5756 5754 5752 5751 5749 5748 5746 5745 5744 5744 5743 5742 5742 5742 5742 5743 5743 5743 5744 5744 5744 5745 5746 5746 5747 5747 5748 5748 5749 5749 5750
5781 5778 5774 5771 5768 5765 5762 5760 5757 5755 5752 5750 5748 5746 5744 5743 5741 5740 5739 5738 5737 5736 5735 5735 5735 5735 5735 5735 5736 5736 5736 5737 5737 5738 5738 5738 5739 5739 5740 5740 5741 5741 5741
5774 5771 5767 5764 5761 5758 5755 5752 5750 5747 5745 5743 5741 5738 5737 5735 5734 5732 5731 5730 5729 5729 5728 5728 5728 5727 5728 5728 5728 5729 5729 5730 5730 5731 5731 5732 5732 5732 5732 5732 5733 5733 5733
5767 5763 5760 5757 5754 5751 5748 5745 5742 5740 5737 5735 5733 5731 5729 5728 5726 5725 5724 5723 5723 5722 5722 5722 5721 5721 5721 5722 5722 5723 5723 5723 5724 5725 5725 5725 5726 5725 5725 5725 5726 5726 5726
5760 5757 5753 5750 5747 5744 5741 5738 5736 5733 5731 5729 5727 5725 5723 5721 5720 5719 5718 5717 5717 5716 5716 5716 5716 5716 5716 5716 5717 5717 5718 5718 5719 5719 5720 5720 5720 5720 5720 5720 5720 5720 5720
5753 5750 5747 5744 5741 5738 5735 5733 5730 5728 5725 5723 5721 5719 5717 5716 5714 5713 5712 5712 5712 5712 5711 5711 5711 5711 5711 5711 5712 5712 5713 5713 5713 5714 5714 5715 5714 5714 5714 5715 5715 5714 5714
5747 5744 5741 5738 5735 5732 5730 5727 5725 5722 5720 5718 5716 5714 5712 5711 5709 5708 5708 5708 5707 5707 5707 5707 5706 5706 5707 5707 5707 5708 5708 5708 5709 5709 5710 5710 5710 5710 5710 5710 5710 5710 5709
5741 5738 5736 5733 5730 5727 5725 5722 5720 5718 5716 5714 5712 5710 5708 5707 5706 5705 5705 5704 5704 5704 5703 5703 5703 5703 5703 5703 5703 5704 5704 5704 5705 5705 5705 5706 5706 5706 5706 5706 5706 5706 5705
5736 5734 5731 5728 5725 5723 5721 5718 5716 5714 5712 5710 5709 5707 5705 5704 5703 5703 5702 5702 5701 5701 5701 5700 5700 5700 5700 5700 5700 5701 5701 5702 5702 5702 5702 5703 5703 5703 5703 5703 5703 5702 5702
5732 5730 5727 5724 5722 5720 5718 5716 5714 5712 5710 5708 5706 5705 5704 5703 5702 5701 5700 5699 5699 5699 5699 5699 5699 5698 5698 5698 5699 5699 5699 5699 5700 5700 5700 5701 5701 5701 5701 5701 5700 5700 5699
5730 5727 5724 5722 5720 5718 5716 5714 5712 5710 5708 5707 5705 5704 5703 5701 5700 5699 5699 5698 5698 5698 5698 5697 5697 5697 5697 5697 5697 5697 5698 5698 5699 5699 5699 5699 5700 5700 5699 5699 5698 5698 5697
5728 5725 5722 5720 5718 5717 5715 5713 5711 5709 5708 5706 5705 5703 5702 5701 5700 5699 5698 5698 5697 5697 5697 5697 5697 5697 5697 5697 5697 5697 5697 5698 5698 5698 5698 5698 5698 5698 5698 5697 5697 5696 5695
5726 5724 5722 5720 5718 5716 5715 5713 5711 5710 5708 5706 5705 5704 5703 5701 5700 5699 5699 5698 5698 5698 5698 5698 5697 5697 5697 5697 5697 5697 5698 5698 5698 5698 5699 5699 5698 5698 5697 5697 5696 5695 5695
5726 5724 5722 5720 5718 5717 5715 5714 5712 5711 5709 5708 5707 5705 5704 5703 5702 5701 5701 5700 5700 5699 5699 5699 5699 5699 5699 5698 5699 5699 5699 5699 5699 5699 5699 5699 5699 5698 5698 5697 5696 5696 5695